Time,TemperatureF,DewpointF,PressureIn,WindDirection,WindDirectionDegrees,WindSpeedMPH,WindSpeedGustMPH,Humidity,HourlyPrecipIn,Conditions,Clouds,dailyrainin,SoftwareType,DateUTC
2013-02-07 00:08:00,12.3,9.0,30.43,East,80,2.0,-999.0,86,-99.99,,,0.00,weatherlink.com 1.10,2013-02-07 05:08:00,
2013-02-07 00:24:00,12.4,9.0,30.43,East,89,3.0,-999.0,86,-99.99,,,0.00,weatherlink.com 1.10,2013-02-07 05:24:00,
2013-02-07 00:39:00,12.6,9.0,30.43,ENE,69,2.0,-999.0,86,-99.99,,,0.00,weatherlink.com 1.10,2013-02-07 05:39:00,
2013-02-07 00:54:00,12.7,10.0,30.43,East,83,1.0,-999.0,87,-99.99,,,0.00,weatherlink.com 1.10,2013-02-07 05:54:00,
2013-02-07 01:24:00,12.8,10.0,30.43,ESE,106,3.0,-999.0,87,-99.99,,,0.00,weatherlink.com 1.10,2013-02-07 06:24:00,
2013-02-07 01:39:00,13.0,10.0,30.43,East,94,3.0,-999.0,86,-99.99,,,0.00,weatherlink.com 1.10,2013-02-07 06:39:00,
2013-02-07 01:54:00,13.0,10.0,30.43,ENE,76,0.0,-999.0,86,-99.99,,,0.00,weatherlink.com 1.10,2013-02-07 06:54:00,
2013-02-07 02:09:00,13.1,10.0,30.42,East,98,3.0,-999.0,86,-99.99,,,0.00,weatherlink.com 1.10,2013-02-07 07:09:00,
2013-02-07 02:24:00,13.4,10.0,30.44,ENE,59,2.0,-999.0,86,-99.99,,,0.00,weatherlink.com 1.10,2013-02-07 07:24:00,
2013-02-07 02:39:00,13.4,10.0,30.44,East,93,3.0,-999.0,86,-99.99,,,0.00,weatherlink.com 1.10,2013-02-07 07:39:00,
2013-02-07 02:54:00,13.5,10.0,30.43,ESE,103,2.0,-999.0,86,-99.99,,,0.00,weatherlink.com 1.10,2013-02-07 07:54:00,
2013-02-07 03:09:00,13.6,10.0,30.44,ESE,119,1.0,-999.0,86,-99.99,,,0.00,weatherlink.com 1.10,2013-02-07 08:09:00,
2013-02-07 03:24:00,13.6,10.0,30.44,East,95,4.0,-999.0,86,-99.99,,,0.00,weatherlink.com 1.10,2013-02-07 08:24:00,
2013-02-07 03:39:00,13.6,10.0,30.44,ESE,104,1.0,-999.0,86,-99.99,,,0.00,weatherlink.com 1.10,2013-02-07 08:39:00,
2013-02-07 03:55:00,13.5,10.0,30.43,ESE,106,2.0,-999.0,86,-99.99,,,0.00,weatherlink.com 1.10,2013-02-07 08:55:00,
2013-02-07 04:10:00,13.5,10.0,30.43,SSE,160,5.0,-999.0,86,-99.99,,,0.00,weatherlink.com 1.10,2013-02-07 09:10:00,
2013-02-07 04:25:00,13.4,10.0,30.43,ESE,109,4.0,-999.0,86,-99.99,,,0.00,weatherlink.com 1.10,2013-02-07 09:25:00,
2013-02-07 04:40:00,13.4,10.0,30.42,ENE,74,4.0,-999.0,85,-99.99,,,0.00,weatherlink.com 1.10,2013-02-07 09:40:00,
2013-02-07 04:55:00,13.4,10.0,30.43,ESE,111,5.0,-999.0,85,-99.99,,,0.00,weatherlink.com 1.10,2013-02-07 09:55:00,
2013-02-07 05:10:00,13.3,10.0,30.42,East,88,7.0,-999.0,86,-99.99,,,0.00,weatherlink.com 1.10,2013-02-07 10:10:00,
2013-02-07 05:25:00,13.2,10.0,30.42,ESE,115,5.0,-999.0,86,-99.99,,,0.00,weatherlink.com 1.10,2013-02-07 10:25:00,
2013-02-07 05:40:00,13.1,10.0,30.43,ESE,110,5.0,-999.0,86,-99.99,,,0.00,weatherlink.com 1.10,2013-02-07 10:40:00,
2013-02-07 05:55:00,13.0,10.0,30.43,ESE,103,4.0,-999.0,86,-99.99,,,0.00,weatherlink.com 1.10,2013-02-07 10:55:00,
2013-02-07 06:10:00,12.8,9.0,30.43,East,97,5.0,-999.0,86,-99.99,,,0.00,weatherlink.com 1.10,2013-02-07 11:10:00,
2013-02-07 06:25:00,12.7,9.0,30.42,ENE,69,10.0,-999.0,86,-99.99,,,0.00,weatherlink.com 1.10,2013-02-07 11:25:00,
2013-02-07 06:40:00,12.5,9.0,30.42,ESE,104,7.0,-999.0,86,-99.99,,,0.00,weatherlink.com 1.10,2013-02-07 11:40:00,
2013-02-07 06:56:00,12.4,9.0,30.42,East,98,3.0,-999.0,86,-99.99,,,0.00,weatherlink.com 1.10,2013-02-07 11:56:00,
2013-02-07 07:11:00,12.4,9.0,30.42,ESE,104,4.0,-999.0,85,-99.99,,,0.00,weatherlink.com 1.10,2013-02-07 12:11:00,
2013-02-07 07:26:00,12.3,9.0,30.42,ESE,116,4.0,-999.0,85,-99.99,,,0.00,weatherlink.com 1.10,2013-02-07 12:26:00,
2013-02-07 07:41:00,12.3,9.0,30.42,ESE,119,4.0,-999.0,85,-99.99,,,0.00,weatherlink.com 1.10,2013-02-07 12:41:00,
2013-02-07 07:57:00,12.2,9.0,30.43,ESE,109,4.0,-999.0,85,-99.99,,,0.00,weatherlink.com 1.10,2013-02-07 12:57:00,
2013-02-07 08:11:00,12.2,8.0,30.43,ESE,107,12.0,-999.0,84,-99.99,,,0.00,weatherlink.com 1.10,2013-02-07 13:11:00,
2013-02-07 08:26:00,12.2,8.0,30.43,ESE,117,7.0,-999.0,84,-99.99,,,0.00,weatherlink.com 1.10,2013-02-07 13:26:00,
2013-02-07 08:41:00,12.3,8.0,30.44,East,82,4.0,-999.0,84,-99.99,,,0.00,weatherlink.com 1.10,2013-02-07 13:41:00,
2013-02-07 08:56:00,12.4,9.0,30.44,East,92,4.0,-999.0,84,-99.99,,,0.00,weatherlink.com 1.10,2013-02-07 13:56:00,
2013-02-07 09:11:00,12.5,8.0,30.44,ESE,107,11.0,-999.0,83,-99.99,,,0.00,weatherlink.com 1.10,2013-02-07 14:11:00,
2013-02-07 09:26:00,12.6,8.0,30.44,ENE,71,10.0,-999.0,83,-99.99,,,0.00,weatherlink.com 1.10,2013-02-07 14:26:00,
2013-02-07 09:41:00,12.7,9.0,30.45,ENE,66,5.0,-999.0,83,-99.99,,,0.00,weatherlink.com 1.10,2013-02-07 14:41:00,
2013-02-07 09:56:00,12.6,9.0,30.44,ESE,109,5.0,-999.0,84,-99.99,,,0.00,weatherlink.com 1.10,2013-02-07 14:56:00,
2013-02-07 10:11:00,12.7,9.0,30.44,ESE,107,7.0,-999.0,84,-99.99,,,0.00,weatherlink.com 1.10,2013-02-07 15:11:00,
2013-02-07 10:26:00,12.8,9.0,30.44,ENE,69,10.0,-999.0,84,-99.99,,,0.00,weatherlink.com 1.10,2013-02-07 15:26:00,
2013-02-07 10:41:00,12.9,9.0,30.44,ESE,105,6.0,-999.0,84,-99.99,,,0.00,weatherlink.com 1.10,2013-02-07 15:41:00,
2013-02-07 10:56:00,13.3,9.0,30.44,East,100,2.0,-999.0,84,-99.99,,,0.00,weatherlink.com 1.10,2013-02-07 15:56:00,
2013-02-07 11:12:00,13.6,9.0,30.43,ENE,69,5.0,-999.0,83,-99.99,,,0.00,weatherlink.com 1.10,2013-02-07 16:12:00,
2013-02-07 11:27:00,13.9,10.0,30.43,East,91,6.0,-999.0,83,-99.99,,,0.00,weatherlink.com 1.10,2013-02-07 16:27:00,
2013-02-07 11:42:00,14.3,10.0,30.43,East,94,5.0,-999.0,83,-99.99,,,0.00,weatherlink.com 1.10,2013-02-07 16:42:00,
2013-02-07 11:57:00,14.6,10.0,30.43,East,82,3.0,-999.0,83,-99.99,,,0.00,weatherlink.com 1.10,2013-02-07 16:57:00,
2013-02-07 12:12:00,14.9,11.0,30.42,ENE,75,7.0,-999.0,83,-99.99,,,0.00,weatherlink.com 1.10,2013-02-07 17:12:00,
2013-02-07 12:27:00,15.0,11.0,30.41,ESE,105,4.0,-999.0,83,-99.99,,,0.00,weatherlink.com 1.10,2013-02-07 17:27:00,
2013-02-07 12:57:00,15.5,11.0,30.40,ENE,75,5.0,-999.0,83,-99.99,,,0.00,weatherlink.com 1.10,2013-02-07 17:57:00,
2013-02-07 13:12:00,15.7,12.0,30.39,ENE,61,4.0,-999.0,84,-99.99,,,0.00,weatherlink.com 1.10,2013-02-07 18:12:00,
2013-02-07 13:27:00,15.8,14.0,30.39,ENE,71,5.0,-999.0,92,-99.99,,,0.00,weatherlink.com 1.10,2013-02-07 18:27:00,
2013-02-07 13:42:00,16.4,12.0,30.39,ENE,71,5.0,-999.0,84,-99.99,,,0.00,weatherlink.com 1.10,2013-02-07 18:42:00,
2013-02-07 13:57:00,16.7,13.0,30.37,ENE,67,6.0,-999.0,84,-99.99,,,0.00,weatherlink.com 1.10,2013-02-07 18:57:00,
2013-02-07 14:12:00,16.7,12.0,30.37,ESE,104,5.0,-999.0,83,-99.99,,,0.00,weatherlink.com 1.10,2013-02-07 19:12:00,
2013-02-07 14:27:00,17.1,13.0,30.37,ENE,73,5.0,-999.0,83,-99.99,,,0.00,weatherlink.com 1.10,2013-02-07 19:27:00,
2013-02-07 14:42:00,17.3,13.0,30.36,ENE,63,4.0,-999.0,83,-99.99,,,0.00,weatherlink.com 1.10,2013-02-07 19:42:00,
2013-02-07 14:57:00,17.6,13.0,30.36,East,96,5.0,-999.0,83,-99.99,,,0.00,weatherlink.com 1.10,2013-02-07 19:57:00,
2013-02-07 15:12:00,17.8,14.0,30.36,East,87,3.0,-999.0,84,-99.99,,,0.00,weatherlink.com 1.10,2013-02-07 20:12:00,
2013-02-07 15:27:00,17.8,14.0,30.36,East,92,2.0,-999.0,84,-99.99,,,0.00,weatherlink.com 1.10,2013-02-07 20:27:00,
2013-02-07 15:42:00,17.9,14.0,30.35,ENE,78,5.0,-999.0,84,-99.99,,,0.00,weatherlink.com 1.10,2013-02-07 20:42:00,
2013-02-07 15:57:00,17.9,14.0,30.35,East,86,5.0,-999.0,84,-99.99,,,0.00,weatherlink.com 1.10,2013-02-07 20:57:00,
2013-02-07 16:12:00,18.0,14.0,30.35,ENE,74,3.0,-999.0,84,-99.99,,,0.00,weatherlink.com 1.10,2013-02-07 21:12:00,
2013-02-07 16:27:00,18.1,14.0,30.35,ENE,74,2.0,-999.0,84,-99.99,,,0.00,weatherlink.com 1.10,2013-02-07 21:27:00,
2013-02-07 16:42:00,18.2,14.0,30.35,East,86,4.0,-999.0,84,-99.99,,,0.00,weatherlink.com 1.10,2013-02-07 21:42:00,
2013-02-07 16:57:00,18.4,14.0,30.34,ENE,68,5.0,-999.0,84,-99.99,,,0.00,weatherlink.com 1.10,2013-02-07 21:57:00,
2013-02-07 17:12:00,18.4,14.0,30.34,East,92,3.0,-999.0,84,-99.99,,,0.00,weatherlink.com 1.10,2013-02-07 22:12:00,
2013-02-07 17:27:00,18.4,15.0,30.34,East,84,2.0,-999.0,85,-99.99,,,0.00,weatherlink.com 1.10,2013-02-07 22:27:00,
2013-02-07 17:42:00,18.4,15.0,30.34,ENE,68,3.0,-999.0,85,-99.99,,,0.00,weatherlink.com 1.10,2013-02-07 22:42:00,
2013-02-07 17:57:00,18.5,15.0,30.33,ENE,77,5.0,-999.0,85,-99.99,,,0.00,weatherlink.com 1.10,2013-02-07 22:57:00,
2013-02-07 18:12:00,18.5,15.0,30.34,ENE,69,5.0,-999.0,85,-99.99,,,0.00,weatherlink.com 1.10,2013-02-07 23:12:00,
2013-02-07 18:27:00,18.5,15.0,30.34,ENE,62,2.0,-999.0,85,-99.99,,,0.00,weatherlink.com 1.10,2013-02-07 23:27:00,
2013-02-07 18:42:00,18.4,15.0,30.34,East,94,3.0,-999.0,85,-99.99,,,0.00,weatherlink.com 1.10,2013-02-07 23:42:00,
2013-02-07 18:57:00,18.3,15.0,30.34,NE,55,4.0,-999.0,85,-99.99,,,0.00,weatherlink.com 1.10,2013-02-07 23:57:00,
2013-02-07 19:12:00,18.2,14.0,30.34,NNE,33,5.0,-999.0,85,-99.99,,,0.00,weatherlink.com 1.10,2013-02-08 00:12:00,
2013-02-07 19:27:00,17.9,14.0,30.34,NE,46,4.0,-999.0,85,-99.99,,,0.00,weatherlink.com 1.10,2013-02-08 00:27:00,
2013-02-07 19:42:00,17.6,14.0,30.34,ENE,71,5.0,-999.0,85,-99.99,,,0.00,weatherlink.com 1.10,2013-02-08 00:42:00,
2013-02-07 19:57:00,17.5,14.0,30.35,East,86,6.0,-999.0,84,-99.99,,,0.00,weatherlink.com 1.10,2013-02-08 00:57:00,
2013-02-07 20:12:00,17.4,13.0,30.34,ENE,75,3.0,-999.0,83,-99.99,,,0.00,weatherlink.com 1.10,2013-02-08 01:12:00,
2013-02-07 20:27:00,17.2,13.0,30.34,ENE,71,4.0,-999.0,83,-99.99,,,0.00,weatherlink.com 1.10,2013-02-08 01:27:00,
2013-02-07 20:42:00,17.1,13.0,30.34,ENE,67,7.0,-999.0,82,-99.99,,,0.00,weatherlink.com 1.10,2013-02-08 01:42:00,
2013-02-07 20:57:00,16.9,12.0,30.34,ENE,67,5.0,-999.0,82,-99.99,,,0.00,weatherlink.com 1.10,2013-02-08 01:57:00,
2013-02-07 21:12:00,16.7,12.0,30.34,East,95,5.0,-999.0,82,-99.99,,,0.00,weatherlink.com 1.10,2013-02-08 02:12:00,
2013-02-07 21:27:00,16.6,12.0,30.34,ENE,67,6.0,-999.0,82,-99.99,,,0.00,weatherlink.com 1.10,2013-02-08 02:27:00,
2013-02-07 21:42:00,16.6,12.0,30.34,ENE,75,8.0,-999.0,82,-99.99,,,0.00,weatherlink.com 1.10,2013-02-08 02:42:00,
2013-02-07 21:57:00,16.6,12.0,30.34,ENE,78,5.0,-999.0,82,-99.99,,,0.00,weatherlink.com 1.10,2013-02-08 02:57:00,
2013-02-07 22:12:00,16.6,12.0,30.34,ENE,57,5.0,-999.0,82,-99.99,,,0.00,weatherlink.com 1.10,2013-02-08 03:12:00,
2013-02-07 22:27:00,16.6,12.0,30.34,ENE,72,3.0,-999.0,82,-99.99,,,0.00,weatherlink.com 1.10,2013-02-08 03:27:00,
2013-02-07 22:42:00,16.6,12.0,30.34,NE,54,10.0,-999.0,82,-99.99,,,0.00,weatherlink.com 1.10,2013-02-08 03:42:00,
2013-02-07 22:57:00,16.6,12.0,30.34,ENE,67,5.0,-999.0,81,-99.99,,,0.00,weatherlink.com 1.10,2013-02-08 03:57:00,
2013-02-07 23:12:00,16.6,12.0,30.34,East,85,6.0,-999.0,81,-99.99,,,0.00,weatherlink.com 1.10,2013-02-08 04:12:00,
2013-02-07 23:27:00,16.6,12.0,30.34,ENE,65,5.0,-999.0,81,-99.99,,,0.00,weatherlink.com 1.10,2013-02-08 04:27:00,
2013-02-07 23:42:00,16.5,12.0,30.34,ENE,72,0.0,-999.0,81,-99.99,,,0.00,weatherlink.com 1.10,2013-02-08 04:42:00,
2013-02-07 23:58:00,16.4,12.0,30.34,ENE,78,1.0,-999.0,81,-99.99,,,0.00,weatherlink.com 1.10,2013-02-08 04:58:00,